Погода в Евсино

Россия / Тюменская область     56°42′08″N   68°17′25″E
темп.,
°C
ветер,
м/с
пор.,
м/с
влажн.,
%
обл.,
%
осадки,
мм/ч
давл.,
гПа
погр.,
м
24 июня, чт
чт2423:00+9ссв4892100 0.6 1016306
02:00+7с489314 0.1 1017196
05:00+5с379518 0.1 1017183
08:00+10с467462 0.0 1017684
11:00+13ссз4555100 0.1 10171617
14:00+14с4552100 0.0 10171699
17:00+15ссв475547 0.0 10161519
20:00+13юв34727 0.0 101576
25 июня, пт
пт2523:00+9ююз468110 0.0 101582
02:00+9юз4976100 0.0 1013155
05:00+11зюз366880 0.0 1012141
08:00+16з22605 0.0 1011361
11:00+20ссз244799 0.0 10111432
14:00+22с464094 0.0 10102147
17:00+21ссв454888 0.0 10111833
20:00+16св366814 0.0 1012112
26 июня, сб
сб2623:00+11вюв228791 0.0 101314
02:00+9юв33925 0.0 101342
05:00+10юв359131 0.0 101494
08:00+16ююв457060 0.0 1013425
11:00+19ююв445893 0.0 10131045
14:00+21ююв3452100 0.0 10111495
17:00+19юв3470100 0.3 1009132
20:00+15вюв5994100 3.2 1009245
27 июня, вс
вс2723:00+14юв51197100 4.3 1009349
02:00+14юв51097100 0.0 1008423
05:00+14юв4898100 0.0 1008324
08:00+16юв449067 0.0 1008440
11:00+17вюв3382100 0.0 1008618
14:00+19в3378100 0.0 1007620
17:00+17всв2387100 0.1 1008172
20:00+16ссв3593100 0.2 1008178
28 июня, пн
пн2823:00+14ссв4899100 2.1 1010408
02:00+13ссв489994 0.2 1010370
05:00+13ссв4798100 0.4 1012316
08:00+14ссз489485 0.0 1013356
11:00+20с576319 0.4 10131248
14:00+21ссз575875 0.3 10131346
17:00+22с585297 0.6 10142284
20:00+17с4964100 0.0 1015269